#timestamp,LO_Frequency,Hit,StdDev 
1567454415.6,286046999.3,N
1567454435.4,286046999.3,N
1567454455.3,286046996.6,N
1567454475.1,286046997.0,N
1567454495.9,286046998.3,N
1567454515.7,286047001.0,N
1567454535.5,286046998.1,N
1567454555.4,286046999.3,N
1567454575.2,286046999.5,N
1567454595.1,286046999.5,N
1567454596.0,286046999.5,N
1567454615.8,286046999.4,N
1567454635.6,286046998.9,N
1567454655.5,286046998.9,N
1567454675.3,286047001.0,N
1567454695.2,286046998.4,N
1567454715.9,286046999.1,N
1567454735.7,286046998.9,N
1567454755.6,286047000.7,N
1567454775.4,286047000.9,N
1567454795.3,286047000.9,N
1567454815.1,286047000.5,N
1567454816.0,286047000.5,N
1567454835.8,286047001.0,N
1567454855.7,286047000.9,N
1567454875.7,286046998.1,N
1567454895.6,286046998.8,N
1567454915.4,286046999.4,N
1567454935.3,286047001.0,N
1567454955.1,286047000.3,N
1567454956.0,286047000.3,N
1567454975.8,286046998.2,N
1567454995.7,286047001.0,N
1567455015.5,286047000.9,N
1567455035.3,286047000.9,N
1567455055.2,286047001.9,N
1567455075.0,286047001.8,N
1567455075.9,286047001.8,N
1567455095.8,286047002.6,N
1567455115.6,286047002.2,N
1567455135.4,286047000.4,N
1567455155.3,286047000.3,N
1567455175.1,286047002.2,N
1567455195.9,286047002.1,N
1567455215.7,286047001.3,N
1567455235.5,286047004.4,Y
1567455255.4,286047002.3,P
1567455275.2,286046999.7,N
1567455295.1,286047002.6,N
1567455296.0,286047002.6,N
1567455315.8,286046999.7,N
1567455335.6,286047002.8,N
1567455355.5,286047002.7,N
1567455375.3,286047000.2,N
1567455395.1,286047000.0,N
1567455415.9,286047000.1,N
1567455435.7,286047000.2,N
1567455455.6,286047000.5,N
1567455475.4,286047000.9,N
1567455495.2,286047000.0,N
1567455515.1,286047000.1,N
1567455516.0,286047000.1,N
1567455535.8,286047000.5,N
1567455555.7,286047002.6,N
1567455575.5,286047001.5,N
1567455595.3,286047001.6,N
1567455615.2,286047002.3,N
1567455635.0,286047001.6,N
1567455635.9,286047001.6,N
1567455655.8,286047002.1,N
1567455675.6,286047002.5,N
1567455695.4,286047001.5,N
1567455715.3,286047004.0,Y
1567455735.1,286047001.9,P
1567455755.9,286047001.5,P
1567455775.7,286047001.5,P
1567455795.5,286047002.2,Y
1567455815.4,286047000.2,P
1567455835.2,286047001.0,N
1567455855.1,286047000.5,N
1567455856.0,286047000.5,N
1567455875.8,286046998.1,Y
1567455895.6,286046998.7,P
1567455915.5,286047000.8,N
1567455935.3,286046999.6,N
1567455955.2,286046999.5,N
1567455975.9,286046999.1,N
1567455995.7,286046999.0,N
1567456015.6,286046998.1,N
1567456035.4,286047001.2,N
1567456055.2,286046999.3,N
1567456075.1,286046998.8,N
1567456076.0,286046998.8,N
1567456095.8,286046998.5,N
1567456115.7,286046998.4,N
1567456135.5,286047000.7,N
1567456155.3,286047001.1,N
1567456175.2,286046998.4,N
1567456195.0,286046998.6,N
1567456195.9,286046998.6,N
1567456215.8,286047000.0,N
1567456235.6,286046999.9,N
1567456255.4,286047002.8,N
1567456275.3,286047000.4,N
1567456295.1,286047000.3,N
1567456315.8,286047000.5,N
1567456335.7,286047002.7,N
1567456355.5,286046999.8,N
1567456375.4,286046999.8,N
1567456395.2,286046998.2,N
1567456415.0,286047000.7,N
1567456415.9,286047000.7,N
1567456435.8,286047000.0,N
1567456455.6,286047000.4,N
1567456475.5,286046999.9,N
1567456495.3,286047001.1,N
1567456515.1,286047000.7,N
1567456535.9,286047001.2,N
1567456555.7,286046998.4,N
1567456575.6,286047001.2,N
1567456595.4,286047001.2,N
1567456615.2,286047000.8,N
1567456635.1,286047000.3,N
1567456636.0,286047000.3,N
1567456655.8,286047002.8,N
1567456675.7,286047002.7,N
1567456695.5,286046999.7,N
1567456715.3,286047002.0,N
1567456735.2,286047002.0,N
1567456755.0,286047002.0,N
1567456755.9,286047002.0,N
1567456775.7,286047002.0,N
1567456795.6,286047002.3,N
1567456815.4,286047002.7,N
1567456835.3,286047002.2,N
1567456855.1,286047000.5,N
1567456875.8,286047000.8,N
1567456895.7,286047001.1,N
1567456915.5,286047001.1,N
1567456935.4,286046998.1,N
1567456955.2,286046998.5,N
1567456975.0,286046998.5,N
1567456975.9,286046998.5,N
1567456995.8,286046998.1,N
1567457015.6,286047001.2,N
1567457035.5,286046998.5,N
1567457055.3,286046998.5,N
1567457075.1,286046998.6,N
1567457095.9,286046999.0,N
1567457115.7,286046998.6,N
1567457135.5,286046999.0,N
1567457155.4,286046999.5,N
1567457175.2,286046998.9,N
1567457195.1,286046996.5,N
1567457196.0,286046996.5,N
1567457215.8,286046997.1,N
1567457235.6,286046998.0,N
1567457255.5,286046997.8,N
1567457275.3,286046995.0,N
1567457295.2,286046997.1,N
1567457315.9,286046996.7,N
1567457335.7,286046997.8,N
1567457355.9,286046996.7,N
1567457375.7,286046996.7,N
1567457395.6,286046997.1,N
1567457415.4,286046997.9,N
1567457435.2,286046997.9,N
1567457455.1,286046995.5,Y
1567457456.0,286046995.5,P
1567457475.8,286046996.9,N
1567457495.7,286046999.5,N
1567457515.5,286046999.2,N
1567457535.3,286046997.0,N
1567457555.2,286046996.9,N
1567457575.0,286046997.1,N
1567457575.9,286046997.1,N
1567457595.8,286046996.7,N
1567457615.6,286046997.2,N
1567457635.4,286046997.2,N
1567457655.3,286046997.3,N
1567457675.1,286046996.6,Y
1567457695.9,286047000.4,P
1567457715.7,286047000.4,N
1567457735.5,286047002.8,N
1567457755.4,286047002.3,N
1567457775.2,286047002.0,N
1567457795.0,286047002.1,N
1567457795.9,286047002.1,N
1567457815.8,286047002.1,N
1567457835.6,286047002.2,N
1567457855.5,286047001.9,N
1567457875.3,286047001.4,N
1567457895.1,286047004.0,N
1567457915.9,286047001.3,N
1567457935.7,286047001.8,N
1567457955.6,286047002.0,N
1567457975.4,286047001.9,N
1567457995.2,286047004.0,N
